Regional Weather Roundup
Issued by NWS Jackson, KY

Home | Current Version | Previous Version | Text Only | Print | Product List | Glossary Off
Versions: 1 2 3 4 5 6 7 8 9 10 11 12 13 14 15 16 17 18 19 20 21 22 23 24 25 26 27 28 29 30 31 32 33 34 35 36 37 38 39 40 41 42 43 44 45 46 47 48 49 50

000
ASUS43 KJKL 282019
RWRJKL

EAST KENTUCKY HOURLY WEATHER ROUNDUP
NATIONAL WEATHER SERVICE JACKSON KY
400 PM EDT MON JUL 28 2014

NOTE: "FAIR" INDICATES FEW OR NO CLOUDS BELOW 12,000 FEET WITH
NO SIGNIFICANT WEATHER AND/OR OBSTRUCTIONS TO VISIBILITY.

* THESE REPORTS ARE NOT UNDER NWS QUALITY CONTROL AND MAY NOT
  REPORT WEATHER SUCH AS PRECIPITATION AND FOG.

KYZ079-080-083-085-087-088-110-112-115-119-120-282100
...EASTERN KENTUCKY...

CITY           SKY/WX    TMP DP  RH WIND       PRES   REMARKS
JACKSON        CLOUDY    71  59  65 NW8       29.98R
LONDON         MOSUNNY   78  59  51 W9        29.98S
SOMERSET*      CLOUDY    77  59  53 NW8G17    29.99S
MONTICELLO*    SUNNY     78  63  60 NW12      30.00S
WILLIAMSBURG*  PTSUNNY   75  63  64 NW6       29.98
MIDDLESBORO*   CLOUDY    76  62  60 NW8       29.97S
HARLAN APT*    MOCLDY    77  55  47 MISG      29.97S
HAZARD APT*    CLOUDY    73  59  60 NW8       29.98R
BLACK MTN*       N/A     63  57  82 NE2         N/A
PIKEVILLE APT* CLOUDY    70  59  68 NW9       29.97R
BIG SANDY*     CLOUDY    71  60  69 NW6       29.97R
MOREHEAD APT*  CLOUDY    70  59  68 NW12      30.00R
ASHLAND*       PTSUNNY   72  57  60 W7        29.92S
$$

KYZ035-036-041-042-044-050-067-078-099-282100
...CENTRAL KENTUCKY...

CITY           SKY/WX    TMP DP  RH WIND       PRES   REMARKS
MT STERLING*   DRIZZLE   66  61  82 NW5       30.00S
FLEMING/MASON* CLOUDY    69  60  72 W12G17    29.98S
DANVILLE*      MOSUNNY   73  57  56 N16       30.01S
RICHMOND*      CLOUDY    72  59  64 NW10      29.99R
LEXINGTON      CLOUDY    71  59  65 NW10      30.00S
FRANKFORT      CLOUDY    70  59  68 NW8       30.00R
$$

KYZ091>093-OHZ055-061-077-WVZ005-015-034-035-042-282100
...SOUTHERN OHIO/WEST VIRGINIA...

CITY           SKY/WX    TMP DP  RH WIND       PRES   REMARKS
COVINGTON      PTSUNNY   71  59  65 NW8       29.97F
COLUMBUS       PTSUNNY   75  55  49 N16G22    29.91R
DAYTON         PTSUNNY   72  57  59 NW12      29.97R
WILMINGTON     PTSUNNY   73  57  57 NW13      29.94S
HUNTINGTON     CLOUDY    70  59  68 NW9G17    29.93F
CHARLESTON     CLOUDY    71  60  68 W8        29.92S
PINEVILLE*     PTSUNNY   73  62  68 MISG      29.99R
BECKLEY        PTSUNNY   67  55  65 NW15      29.94S
BLUEFIELD      CLOUDY    68  55  63 W13G29    29.97S
$$

VAZ002-007-008-TNZ017-027-036-066-071-282100
...SOUTHWEST VIRGINIA/EAST TENNESSEE...

CITY           SKY/WX    TMP DP  RH WIND       PRES   REMARKS
WISE*          CLOUDY    68  55  64 W8        30.02R
JONESVILLE*    PTCLDY    75  61  60 W7        29.99R
ABINGDON*      CLOUDY    72  59  62 NW6       29.97R
BRISTOL        PTSUNNY   76  57  51 W14       29.95R
KNOXVILLE      PTSUNNY   81  60  48 W9        29.95S
OAK RIDGE      MOSUNNY   83  58  42 VRB6      29.97S
CROSSVILLE     PTSUNNY   74  59  59 NW9       30.03R
NASHVILLE      PTSUNNY   82  59  45 NW15      30.00S
$$

...KEY TO REMARKS...
VSB - VISIBILITY IN MILES
WCI - WIND CHILL INDEX
HX  - HEAT INDEX

$$


USA.gov is the U.S. government's official web portal to all federal, state and local government web resources and services.